DW3200 Weather Reports


time (UTC)temp
F
wind
direction
speed
knots
gust
knots
rain 1hr
in
rain 24hr
in
rain mn
in
humidity
%
barometer
mb
20260903230012 59 13 0.0 0.0 0.00 0.00 0.10 72 1009.1
20260903224522 59 13 0.9 0.0 0.00 0.00 0.10 71 1009.2
20260903223053 59 11 0.9 0.0 0.00 0.00 0.10 72 1009.3
20260903221551 59 9 0.0 0.0 0.00 0.00 0.10 71 1009.4
20260903220031 58 9 0.9 0.0 0.00 0.00 0.10 73 1010.0
20260903214534 58 5 0.9 0.0 0.00 0.00 0.10 74 1010.1
20260903213011 58 360 0.9 0.0 0.00 0.00 0.10 77 1010.1
20260903211510 58 322 0.9 0.0 0.00 0.00 0.10 77 1010.0
20260903210052 56 301 0.9 0.0 0.00 0.00 0.10 82 1010.0
20260903204548 56 300 0.9 0.0 0.00 0.00 0.10 84 1010.3
20260903203029 55 299 0.0 0.0 0.00 0.00 0.10 85 1010.3
20260903201529 55 299 0.9 0.0 0.00 0.00 0.10 87 1010.4
20260903200010 55 298 0.0 0.0 0.00 0.00 0.10 89 1010.4
20260903194508 54 298 0.0 0.0 0.00 0.00 0.10 90 1010.5
20260903193108 53 298 0.9 0.0 0.00 0.00 0.10 91 1010.7
20260903191549 53 293 0.0 0.0 0.00 0.00 0.10 92 1010.7
20260903190047 53 293 2.6 0.0 0.00 0.00 0.10 92 1010.9
20260903184528 53 293 0.9 0.0 0.00 0.00 0.10 92 1011.0
20260903183031 53 293 0.0 0.0 0.00 0.00 0.10 93 1011.1
20260903181516 52 293 0.0 0.0 0.00 0.00 0.10 93 1011.0
20260903180024 52 293 0.0 0.0 0.00 0.00 0.10 94 1011.0
20260903174513 53 293 0.9 0.0 0.00 0.00 0.10 94 1010.9
20260903173012 52 292 0.0 0.0 0.00 0.00 0.10 94 1010.7
20260903171509 52 292 0.0 0.0 0.00 0.00 0.10 94 1010.8
20260903170012 51 292 0.0 0.0 0.00 0.00 0.09 94 1010.8
20260903164507 51 292 0.0 0.0 0.00 0.00 0.08 94 1010.7
20260903163007 51 292 0.9 0.0 0.00 0.00 0.08 94 1010.8
20260903161549 51 292 0.9 0.0 0.00 0.00 0.07 94 1010.6
20260903160049 51 292 0.0 0.0 0.00 0.00 0.06 94 1010.6
20260903154528 51 292 0.0 0.0 0.00 0.00 0.05 93 1010.4
20260903153026 51 292 0.0 0.0 0.00 0.00 0.05 94 1010.4
20260903151510 51 292 0.0 0.0 0.00 0.00 0.04 94 1010.3
20260903150014 51 292 0.0 0.0 0.00 0.00 0.03 93 1010.4
20260903144552 50 292 0.0 0.0 0.00 0.00 0.02 94 1010.2
20260903143048 50 292 0.0 0.0 0.00 0.00 0.01 93 1010.1
20260903141534 51 292 0.0 0.0 0.00 0.00 0.00 93 1009.9
20260903140033 50 292 0.0 0.0 0.00 0.00 0.57 93 1009.7
20260903134532 50 292 0.0 0.0 0.00 0.00 0.56 93 1009.5
20260903133035 50 292 0.0 0.0 0.00 0.00 0.56 93 1009.5
20260903131531 50 292 0.0 0.0 0.00 0.00 0.54 93 1009.4
20260903130031 50 292 0.0 0.0 0.00 0.00 0.53 93 1009.1
20260903124530 50 292 0.0 0.0 0.00 0.00 0.52 93 1009.1
20260903123030 50 292 0.0 0.0 0.00 0.00 0.51 92 1008.9
20260903121522 51 292 0.0 0.0 0.00 0.00 0.50 92 1009.0
20260903120011 51 292 0.0 0.0 0.00 0.00 0.49 92 1008.8
20260903114602 51 292 0.0 0.0 0.00 0.00 0.48 92 1008.7
20260903113051 51 292 0.0 0.0 0.00 0.00 0.47 92 1008.8
20260903111534 51 292 0.0 0.0 0.00 0.00 0.47 92 1008.8
20260903110033 51 292 0.0 0.0 0.00 0.00 0.46 92 1008.7
20260903104514 51 292 0.0 0.0 0.00 0.00 0.45 91 1008.7
20260903103018 51 292 0.0 0.0 0.00 0.00 0.45 91 1008.4
20260903101507 51 292 0.9 0.0 0.00 0.00 0.45 91 1008.4
20260903100001 52 292 1.7 0.0 0.00 0.00 0.44 90 1008.3
20260903094545 52 292 2.6 0.0 0.00 0.00 0.44 89 1008.2
20260903093044 52 292 1.7 0.0 0.00 0.00 0.43 88 1008.3
20260903091526 53 292 0.0 0.0 0.00 0.00 0.43 88 1008.3
20260903090026 53 292 0.0 0.0 0.00 0.00 0.43 87 1008.3
20260903084508 53 292 0.0 0.0 0.00 0.00 0.42 86 1008.0
20260903083010 53 292 0.0 0.0 0.00 0.00 0.42 86 1007.9
20260903081550 53 292 0.0 0.0 0.00 0.00 0.42 85 1008.0
20260903080115 54 292 0.0 0.0 0.00 0.00 0.42 84 1008.0
20260903074531 54 292 0.0 0.0 0.00 0.00 0.42 84 1008.1
20260903073034 54 292 0.0 0.0 0.00 0.00 0.42 83 1008.3
20260903071520 54 292 0.0 0.0 0.00 0.00 0.42 83 1008.0
20260903070017 54 292 0.0 0.0 0.00 0.00 0.42 83 1007.7
20260903064555 55 292 0.0 0.0 0.00 0.00 0.42 82 1007.6
20260903063105 55 292 0.9 0.0 0.00 0.00 0.42 82 1007.7
20260903061555 55 292 0.0 0.0 0.00 0.00 0.42 81 1007.7
20260903060038 55 292 1.7 0.0 0.00 0.00 0.42 81 1007.8
20260903054520 56 298 4.3 0.0 0.00 0.00 0.42 81 1007.5
20260903053019 56 292 4.3 0.0 0.00 0.00 0.42 80 1007.4
20260903051501 57 290 4.3 0.0 0.00 0.00 0.42 79 1007.2
20260903050002 57 286 7.8 0.0 0.00 0.00 0.42 77 1006.9
20260903044551 58 286 7.8 0.0 0.00 0.00 0.42 76 1006.5
20260903043043 59 279 8.7 0.0 0.00 0.00 0.42 73 1006.7
20260903041532 61 277 7.8 0.0 0.00 0.00 0.42 71 1006.4
20260903040026 61 294 6.1 0.0 0.00 0.00 0.42 74 1006.0
20260903034508 61 304 5.2 0.0 0.00 0.00 0.42 76 1005.5
20260903033014 61 296 3.5 0.0 0.00 0.00 0.42 76 1005.6
20260903031550 61 46 0.0 0.0 0.00 0.00 0.42 75 1005.3
20260903030049 62 46 0.0 0.0 0.00 0.00 0.42 72 1004.9
20260903024531 63 46 0.0 0.0 0.00 0.00 0.42 70 1004.8
20260903023034 64 46 0.0 0.0 0.00 0.00 0.42 67 1004.7
20260903021516 65 46 0.9 0.0 0.00 0.00 0.42 65 1004.9
20260903020030 65 46 0.0 0.0 0.00 0.00 0.42 63 1004.9
20260903014613 67 46 0.0 0.0 0.00 0.00 0.42 61 1005.0
20260903013102 68 46 0.0 0.0 0.00 0.00 0.42 58 1004.9
20260903011550 69 46 0.0 0.0 0.00 0.00 0.42 55 1004.8
20260903010049 70 46 0.0 0.0 0.00 0.00 0.42 52 1004.9
20260903004519 71 46 0.0 0.0 0.00 0.00 0.42 51 1004.9
20260903003017 70 46 0.9 0.0 0.00 0.00 0.42 52 1004.9
20260903001602 71 46 0.0 0.0 0.00 0.00 0.42 51 1004.8
20260903000057 71 34 0.9 0.0 0.00 0.00 0.42 53 1005.0
20260902234542 70 56 0.9 0.0 0.00 0.00 0.42 54 1005.1
20260902233038 70 56 1.7 0.0 0.00 0.00 0.42 55 1005.4
20260902231539 70 55 0.9 0.0 0.00 0.00 0.41 55 1005.5